Change the Weather History Date:

Tuesday, July 23, 2013

  Actual Average Record
Temperature  
Mean Temperature 80 °F -  
Max Temperature 84 °F 80 °F 84 °F (2004)
Min Temperature 75 °F 72 °F 71 °F (2014)
Cooling Degree Days 14    
Growing Degree Days 30 (Base 50)    
Moisture  
Dew Point 72 °F    
Average Humidity 81    
Maximum Humidity 91    
Minimum Humidity 66    
Precipitation  
Precipitation 0.01 in - - ()
Sea Level Pressure  
Sea Level Pressure 30.00 in    
Wind  
Wind Speed 6 mph (East)    
Max Wind Speed 13 mph    
Max Gust Speed 21 mph    
Visibility 8 miles    
Events Rain    
Averages and records for this station are not official NWS values.
T = Trace of Precipitation, MM = Missing Value Source: NWS Daily Summary

Daily Weather History Graph

Daily Weather History Graph

Search for Another Location

Airport or City:

Trip Planner

Search our weather history database for the weather conditions in past years. The results will help you decide how hot, cold, wet, or windy it might be!

Date:

Astronomy

Jul. 23, 2013 Rise Set
Actual Time 6:00 AM HST 7:13 PM HST
Civil Twilight 5:36 AM HST 7:38 PM HST
Nautical Twilight 5:08 AM HST 8:06 PM HST
Astronomical Twilight 4:38 AM HST 8:36 PM HST
Moon 8:10 PM HST (7/23) 7:06 AM HST (7/23)
Length of Visible Light 14h 01m
Length of Day
13h 13m
Full, 98% of the Moon is Illuminated
Jul 23
Full
Jul 29
Last Quarter
Aug 6
New
Aug 14
First Quarter
Aug 20
Full

Hourly Weather History & Observations

Time (HST) Temp. Heat Index Dew Point Humidity Pressure Visibility Wind Dir Wind Speed Gust Speed Precip Events Conditions
12:57 AM 76.6 °F - 73.0 °F 89% 29.99 in 10.0 mi ESE 5.8 mph - N/A   Scattered Clouds
1:57 AM 76.6 °F - 73.0 °F 89% 29.98 in 10.0 mi East 6.9 mph - N/A   Scattered Clouds
2:57 AM 75.9 °F - 72.0 °F 87% 29.97 in 10.0 mi East 4.6 mph - N/A   Mostly Cloudy
3:57 AM 75.9 °F - 73.0 °F 91% 29.96 in 10.0 mi Calm Calm - N/A   Mostly Cloudy
4:57 AM 75.9 °F - 72.0 °F 87% 29.95 in 10.0 mi Calm Calm - N/A   Scattered Clouds
5:57 AM 76.5 °F - 72.0 °F 86% 29.96 in 10.0 mi Calm Calm - N/A   Mostly Cloudy
6:57 AM 76.6 °F - 73.9 °F 91% 29.98 in 10.0 mi Calm Calm - N/A   Scattered Clouds
7:57 AM 76.6 °F - 73.0 °F 89% 29.99 in 10.0 mi ESE 5.8 mph - 0.01 in Rain Light Rain
8:57 AM 78.4 °F - 73.0 °F 83% 30.00 in 6.0 mi ESE 6.9 mph - 0.00 in   Haze
9:04 AM - - - N/A% 30.01 in 6.2 mi East 8.1 mph - N/A   Overcast
9:20 AM 77.0 °F - 73.4 °F 89% 30.01 in 6.2 mi ESE 8.1 mph - N/A   Overcast
9:57 AM 80.6 °F 85.2 °F 73.0 °F 78% 30.00 in 10.0 mi ESE 10.4 mph - N/A   Mostly Cloudy
10:16 AM 78.8 °F - 73.4 °F 83% 30.02 in 6.2 mi ESE 10.4 mph - N/A   Overcast
10:57 AM 78.8 °F - 73.0 °F 82% 30.01 in 10.0 mi ESE 9.2 mph 16.1 mph N/A   Overcast
11:15 AM 80.6 °F 85.4 °F 73.4 °F 79% 30.02 in 6.2 mi East 6.9 mph 17.3 mph N/A   Mostly Cloudy
11:50 AM 80.6 °F 85.4 °F 73.4 °F 79% 30.02 in 6.2 mi East 10.4 mph 16.1 mph N/A   Overcast
11:57 AM 80.6 °F 85.2 °F 73.0 °F 78% 30.01 in 10.0 mi East 8.1 mph 16.1 mph N/A   Overcast
12:23 PM 82.4 °F 87.2 °F 71.6 °F 70% 30.01 in 6.2 mi ENE 9.2 mph 17.3 mph N/A   Scattered Clouds
12:57 PM 82.4 °F 87.4 °F 72.0 °F 71% 30.00 in 10.0 mi ENE 11.5 mph 18.4 mph N/A   Scattered Clouds
1:04 PM - - - N/A% 30.01 in 6.2 mi ENE 10.4 mph 20.7 mph N/A   Overcast
1:15 PM 84.2 °F 89.6 °F 71.6 °F 66% 30.01 in 6.2 mi East 12.7 mph 19.6 mph N/A   Scattered Clouds
1:57 PM 84.2 °F 89.9 °F 72.0 °F 67% 29.99 in 10.0 mi ENE 8.1 mph 16.1 mph N/A   Scattered Clouds
2:04 PM - - - N/A% 30.01 in 6.2 mi East 8.1 mph - N/A   Overcast
2:16 PM 84.2 °F 89.6 °F 71.6 °F 66% 30.00 in 6.2 mi East 9.2 mph - N/A   Scattered Clouds
2:30 PM - - - N/A% - - North - - N/A   Unknown
2:57 PM 82.4 °F 86.7 °F 71.1 °F 68% 29.99 in 10.0 mi ENE 8.1 mph 18.4 mph N/A   Mostly Cloudy
3:04 PM 82.4 °F 87.2 °F 71.6 °F 70% 30.00 in 6.2 mi ENE 8.1 mph 16.1 mph N/A   Overcast
3:57 PM 81.5 °F 86.1 °F 72.0 °F 73% 29.98 in 10.0 mi ENE 8.1 mph - N/A   Mostly Cloudy
4:57 PM 80.6 °F 84.4 °F 71.1 °F 73% 29.97 in 10.0 mi East 8.1 mph - N/A   Scattered Clouds
5:57 PM 80.6 °F 84.4 °F 71.1 °F 73% 29.98 in 10.0 mi Variable 6.9 mph - N/A   Scattered Clouds
6:57 PM 79.7 °F - 71.1 °F 75% 29.99 in 10.0 mi ESE 8.1 mph - N/A   Mostly Cloudy
7:57 PM 78.8 °F - 71.1 °F 77% 30.01 in 10.0 mi East 3.5 mph - N/A   Scattered Clouds
8:57 PM 75.2 °F - 70.0 °F 84% 30.02 in 10.0 mi East 4.6 mph - N/A   Mostly Cloudy
9:54 PM 75.2 °F - 71.6 °F 89% 30.04 in 6.2 mi East 3.5 mph - N/A   Mostly Cloudy
9:57 PM 75.2 °F - 71.1 °F 87% 30.03 in 10.0 mi Variable 3.5 mph - N/A   Scattered Clouds
10:04 PM 75.2 °F - 71.6 °F 89% 30.04 in 6.2 mi Calm Calm - N/A   Mostly Cloudy
10:35 PM 75.2 °F - 71.6 °F 89% 30.04 in 6.2 mi ENE 8.1 mph - N/A   Scattered Clouds
10:57 PM 75.2 °F - 71.1 °F 87% 30.03 in 10.0 mi ENE 5.8 mph - N/A   Scattered Clouds
11:57 PM 75.2 °F - 70.0 °F 84% 30.02 in 10.0 mi ENE 8.1 mph - N/A   Scattered Clouds